F5MAP-5 Weather Reports


Display with metric or nautical units.
time (UTC)temp
F
wind
direction
speed
MPH
gust
MPH
rain 1hr
in
rain 24hr
in
rain mn
in
humidity
%
barometer
mb
20260509164212 74 11 4.0 8.0 0.00 0.00 0.00 42 1012.2
20260509162211 75 47 5.0 10.0 0.00 0.00 0.00 41 1012.4
20260509161212 75 355 2.0 8.0 0.00 0.00 0.00 41 1012.4
20260509160212 75 5 1.0 5.0 0.00 0.00 0.00 40 1012.4
20260509155211 75 56 3.0 8.0 0.00 0.00 0.00 40 1012.5
20260509154211 76 51 4.0 10.0 0.00 0.00 0.00 40 1012.6
20260509153211 76 57 4.0 8.0 0.00 0.00 0.00 41 1012.5
20260509152211 76 59 5.0 10.0 0.00 0.00 0.00 40 1012.5
20260509150212 76 82 3.0 8.0 0.00 0.00 0.00 37 1012.6
20260509144211 76 78 1.0 3.0 0.00 0.00 0.00 34 1012.8
20260509143211 76 355 3.0 5.0 0.00 0.00 0.00 33 1013.0
20260509142211 76 11 3.0 5.0 0.00 0.00 0.00 37 1013.2
20260509140210 78 219 2.0 7.0 0.00 0.00 0.00 37 1013.7
20260509135213 78 221 1.0 7.0 0.00 0.00 0.00 38 1013.7
20260509134213 78 9 1.0 4.0 0.00 0.00 0.00 37 1013.9
20260509133213 78 355 3.0 6.0 0.00 0.00 0.00 39 1014.0
20260509132212 77 92 1.0 6.0 0.00 0.00 0.00 40 1014.0
20260509130213 78 341 2.0 9.0 0.00 0.00 0.00 42 1014.2
20260509125212 78 47 4.0 8.0 0.00 0.00 0.00 43 1014.3
20260509124212 78 15 2.0 9.0 0.00 0.00 0.00 44 1014.5
20260509123212 77 79 2.0 4.0 0.00 0.00 0.00 45 1014.5
20260509122212 77 85 4.0 7.0 0.00 0.00 0.00 45 1014.7
20260509121212 77 50 2.0 4.0 0.00 0.00 0.00 48 1014.9
20260509120212 76 69 4.0 7.0 0.00 0.00 0.00 48 1015.0
20260509115212 76 79 3.0 7.0 0.00 0.00 0.00 49 1015.0
20260509113212 76 74 2.0 5.0 0.00 0.00 0.00 51 1015.3
20260509112211 75 88 2.0 8.0 0.00 0.00 0.00 49 1015.4
20260509111211 74 86 2.0 7.0 0.00 0.00 0.00 50 1015.6
20260509105211 74 339 1.0 6.0 0.00 0.00 0.00 55 1015.9
20260509104211 74 5 2.0 4.0 0.00 0.00 0.00 53 1016.1
20260509103211 73 257 1.0 4.0 0.00 0.00 0.00 55 1016.2
20260509102211 71 342 2.0 4.0 0.00 0.00 0.00 58 1016.3
20260509101211 70 242 3.0 5.0 0.00 0.00 0.00 60 1016.4
20260509100210 69 333 2.0 5.0 0.00 0.00 0.00 60 1016.5
20260509095210 69 205 2.0 7.0 0.00 0.00 0.00 62 1016.6
20260509094210 68 221 2.0 9.0 0.00 0.00 0.00 63 1016.6
20260509093210 67 131 3.0 6.0 0.00 0.00 0.00 63 1016.8
20260509092210 67 259 2.0 4.0 0.00 0.00 0.00 63 1016.9
20260509091210 66 17 1.0 4.0 0.00 0.00 0.00 64 1016.9
20260509090210 65 360 2.0 4.0 0.00 0.00 0.00 65 1017.1
20260509085210 65 24 2.0 4.0 0.00 0.00 0.00 68 1017.1
20260509084210 64 54 2.0 4.0 0.00 0.00 0.00 68 1017.1
20260509083210 63 44 2.0 3.0 0.00 0.00 0.00 70 1017.2
20260509082211 62 85 2.0 6.0 0.00 0.00 0.00 70 1017.2
20260509081215 62 23 3.0 5.0 0.00 0.00 0.00 71 1017.1
20260509080215 61 5 2.0 4.0 0.00 0.00 0.00 72 1017.3
20260509075215 61 44 3.0 6.0 0.00 0.00 0.00 73 1017.2
20260509074215 60 40 3.0 7.0 0.00 0.00 0.00 73 1017.2
20260509072215 59 80 2.0 5.0 0.00 0.00 0.00 76 1017.4
20260509071215 58 110 1.0 4.0 0.00 0.00 0.00 77 1017.4
20260509070215 58 339 2.0 5.0 0.00 0.00 0.00 79 1017.6
20260509064215 57 30 2.0 3.0 0.00 0.00 0.00 83 1017.6
20260509062215 55 39 1.0 4.0 0.00 0.00 0.00 86 1017.3
20260509061214 54 34 1.0 4.0 0.00 0.00 0.00 88 1017.3
20260509060214 53 71 0.0 1.0 0.00 0.00 0.00 88 1017.4
20260509055216 53 38 0.0 0.0 0.00 0.00 0.00 89 1017.3
20260509054215 52 31 0.0 2.0 0.00 0.00 0.00 88 1017.3
20260509053215 52 22 0.0 2.0 0.00 0.00 0.00 88 1017.3
20260509052215 51 221 0.0 0.0 0.00 0.00 0.00 88 1017.3
20260509051215 51 221 0.0 0.0 0.00 0.00 0.00 87 1017.2
20260509050215 50 221 0.0 0.0 0.00 0.00 0.00 86 1017.2
20260509045216 50 221 0.0 0.0 0.00 0.00 0.00 86 1017.1
20260509043215 50 360 0.0 0.0 0.00 0.00 0.00 85 1016.7
20260509042215 50 360 0.0 0.0 0.00 0.00 0.00 85 1016.6
20260509041215 51 360 0.0 2.0 0.00 0.00 0.00 84 1016.5
20260509040215 51 5 1.0 2.0 0.00 0.00 0.00 84 1016.4
20260509035216 51 5 0.0 2.0 0.00 0.00 0.00 84 1016.4
20260509033215 51 5 0.0 1.0 0.00 0.00 0.00 83 1016.4
20260509032214 51 29 0.0 0.0 0.00 0.00 0.00 84 1016.6
20260509031215 52 29 0.0 0.0 0.00 0.00 0.00 83 1016.7
20260509030215 52 29 0.0 0.0 0.00 0.00 0.00 83 1016.8
20260509024216 52 20 0.0 0.0 0.00 0.00 0.00 83 1016.6
20260509023214 52 5 0.0 0.0 0.00 0.00 0.00 82 1016.7
20260509021214 53 348 1.0 4.0 0.00 0.00 0.00 82 1016.5
20260509020214 53 338 0.0 0.0 0.00 0.00 0.00 82 1016.5
20260509015214 53 21 0.0 0.0 0.00 0.00 0.00 82 1016.5
20260509014214 53 5 1.0 3.0 0.00 0.00 0.00 81 1016.5
20260509013215 53 39 0.0 4.0 0.00 0.00 0.00 81 1016.5
20260509012214 54 349 1.0 5.0 0.00 0.00 0.00 80 1016.5
20260509011213 54 36 1.0 5.0 0.00 0.00 0.00 80 1016.5
20260509010213 54 355 2.0 3.0 0.00 0.00 0.00 80 1016.6
20260509005214 54 41 1.0 3.0 0.00 0.00 0.00 80 1016.6
20260509004214 55 32 1.0 2.0 0.00 0.00 0.00 79 1016.6
20260509003214 55 36 1.0 2.0 0.00 0.00 0.00 79 1016.6
20260509002214 55 32 1.0 4.0 0.00 0.00 0.00 79 1016.7
20260509001215 55 28 2.0 4.0 0.00 0.00 0.00 78 1016.7
20260509000214 55 355 0.0 2.0 0.00 0.00 0.00 77 1016.7
20260508235214 56 32 1.0 3.0 0.00 0.00 0.00 77 1016.7
20260508234213 56 355 0.0 0.0 0.00 0.00 0.00 77 1016.7
20260508233213 56 344 0.0 0.0 0.00 0.00 0.00 76 1016.7
20260508232213 56 37 0.0 0.0 0.00 0.00 0.00 75 1016.7
20260508230213 57 338 0.0 2.0 0.00 0.00 0.00 75 1016.6
20260508225214 57 338 3.0 5.0 0.00 0.00 0.00 75 1016.5
20260508224213 58 333 1.0 4.0 0.00 0.00 0.00 75 1016.5
20260508223213 58 332 2.0 4.0 0.00 0.00 0.00 75 1016.5
20260508222213 58 329 5.0 8.0 0.00 0.00 0.00 75 1016.4
20260508221214 58 342 3.0 6.0 0.00 0.00 0.00 75 1016.3
20260508220214 59 346 4.0 8.0 0.00 0.00 0.00 74 1016.3
20260508215213 59 337 2.0 5.0 0.00 0.00 0.00 74 1016.4
20260508214213 59 317 3.0 7.0 0.00 0.00 0.00 74 1016.4
20260508213213 60 341 2.0 5.0 0.00 0.00 0.00 74 1016.3
20260508212213 60 360 3.0 5.0 0.00 0.00 0.00 74 1016.3
20260508211213 60 325 3.0 8.0 0.00 0.00 0.00 74 1016.2
20260508205214 61 5 2.0 6.0 0.00 0.00 0.00 72 1016.0
20260508204214 61 26 4.0 10.0 0.00 0.00 0.00 72 1016.0
20260508203214 62 360 3.0 9.0 0.00 0.00 0.00 71 1016.1
20260508202214 62 5 2.0 4.0 0.00 0.00 0.00 70 1016.1
20260508201214 62 5 2.0 5.0 0.00 0.00 0.00 70 1016.0
20260508200214 63 36 3.0 6.0 0.00 0.00 0.00 68 1015.9
20260508194214 64 29 2.0 6.0 0.00 0.00 0.00 67 1015.5
20260508193214 64 32 2.0 9.0 0.00 0.00 0.00 66 1015.4
20260508192214 65 33 2.0 8.0 0.00 0.00 0.00 65 1015.3
20260508191214 65 9 4.0 8.0 0.00 0.00 0.00 65 1015.1
20260508190214 65 351 4.0 8.0 0.00 0.00 0.00 64 1015.0
20260508183213 66 36 3.0 9.0 0.00 0.00 0.00 63 1014.7
20260508182213 67 36 3.0 10.0 0.00 0.00 0.00 62 1014.6
20260508181213 67 66 4.0 8.0 0.00 0.00 0.00 61 1014.4
20260508175213 68 81 6.0 11.0 0.00 0.00 0.00 58 1014.1
20260508174213 68 55 5.0 11.0 0.00 0.00 0.00 57 1014.0
20260508173213 68 42 4.0 9.0 0.00 0.00 0.00 56 1013.9
20260508172213 69 55 5.0 9.0 0.00 0.00 0.00 56 1013.7
20260508171213 69 52 4.0 9.0 0.00 0.00 0.00 55 1013.6
20260508170212 69 76 3.0 9.0 0.00 0.00 0.00 55 1013.6
20260508165213 69 67 3.0 8.0 0.00 0.00 0.00 54 1013.5